Location: *
(28.3744°N, 81.5492°W)
Time: 14:44:33
(UTC+00:00)

Cosmos-2242 - Pass Details

Date: 15 June 2025
Orbit: 569 x 594 km, 82.5° (Epoch: 15 July)

Event Time Altitude Azimuth Distance (km) Brightness Sun altitude
Rises 09:57:20 0° 1° (N) 2,771 6.9 -6.8°
Reaches altitude 10° 09:59:34 10° 7° (N) 1,871 6.1 -6.4°
Maximum altitude 10:03:34 48° 82° (E) 744 4.0 -5.7°
Drops below altitude 10° 10:07:33 10° 158° (SSE) 1,866 5.5 -4.9°
Sets 10:09:47 0° 164° (SSE) 2,763 6.3 -4.5°
